Regional Weather Roundup
Issued by NWS

Home | Current Version | Previous Version | Graphics & Text | Print | Product List | Glossary On
Versions: 1 2 3 4 5 6 7 8 9 10 11 12 13 14 15 16 17 18 19 20 21 22 23 24 25 26 27
000
ASUS45 KBOU 232307
RWRCO

WEATHER ROUNDUP FOR COLORADO
NATIONAL WEATHER SERVICE DENVER/BOULDER CO
500 PM MDT SAT JUL 23 2016

NOTE: "FAIR" INDICATES FEW OR NO CLOUDS BELOW 12000 FEET WITH NO
SIGNIFICANT WEATHER AND/OR OBSTRUCTIONS TO VISIBILITY.

COZ001>005-013-030-031-240000-
...NORTHWEST COLORADO...

CITY           SKY/WX    TMP DP  RH WIND       PRES   REMARKS
CRAIG          FAIR      91  27  10 SW13G23   30.14F
HAYDEN         FAIR      88  32  13 SW16      30.18S
MEEKER         FAIR      81  49  32 E13G24    30.19S
MOUNT WERNER   NOT AVBL
STEAMBOAT SPGS FAIR      84  41  21 SW6       30.20F
WALDEN         FAIR      77  36  22 SW14      30.33F
$$

COZ006>008-011-240000-
...WEST CENTRAL VALLEYS...

CITY           SKY/WX    TMP DP  RH WIND       PRES   REMARKS
GRAND JUNCTION FAIR      98  40  13 W9        30.01F
MONTROSE       FAIR      92  39  15 NW8       30.11F
EAGLE          MOSUNNY   86  43  22 SW15G21   30.21R
RIFLE          FAIR      91  38  15 N14G25    30.09S
DELTA          FAIR      99  39  12 S6        30.05F
NUCLA          FAIR      90  34  13 CALM      30.17F
$$

COZ017>023-064>068-240000-
...SOUTHWEST COLORADO...

CITY           SKY/WX    TMP DP  RH WIND       PRES   REMARKS
DURANGO        FAIR      78  51  38 NE18      30.18F
CORTEZ         FAIR      96  37  12 W12       30.12F
PAGOSA SPRINGS FAIR      84  33  16 N10       30.30F
TELLURIDE      FAIR      76  31  18 W9        30.44F
WOLF CREEK PAS FAIR      59  36  41 N8G17     30.71S
$$

COZ009-010-012-014-032>034-037-058>063-240000-
...CENTRAL COLORADO...

CITY           SKY/WX    TMP DP  RH WIND       PRES   REMARKS
ASPEN          FAIR      83  35  18 NW8G25    30.30S
BUENA VISTA    FAIR      81  32  16 SE7G17    30.28F
COPPER MTN     FAIR      70  28  21 NW20G25   30.67F
BERTHOUD PASS  FAIR      55  41  58 N13       30.71S
COTTONWOOD PAS PTSUNNY   77  30  18 E12G17    30.47F
GUNNISON       FAIR      82  39  21 N9        30.30F
KREMMLING      FAIR      79  48  34 E13       30.29F
LEADVILLE      FAIR      75  33  21 N14G25    30.47S
MONARCH PASS   CLOUDY    64  34  32 MISG      30.77F
SALIDA         FAIR      85  38  19 NW7       30.33F
SUNLIGHT       FAIR      72  48  43 SW3       30.59F
WILKERSON PASS FAIR      68  34  28 S8        30.62F
$$

COZ069>075-240000-
...SAN LUIS VALLEY/SANGRE DE CRISTO MOUNTAINS...

CITY           SKY/WX    TMP DP  RH WIND       PRES   REMARKS
ALAMOSA        PTSUNNY   77  42  28 W26G38    30.28S
LA VETA PASS   CLOUDY    72  37  28 NE5       30.52R
SAGUACHE       PTSUNNY   82  41  23 SE14      30.29S
$$

COZ035-036-038>040-240000-
...NORTHERN COLORADO FRONT RANGE...

CITY           SKY/WX    TMP DP  RH WIND       PRES   REMARKS
DENVER INTL AP PTSUNNY   94  37  13 SE8       30.03F
DMNS CITY PARK   N/A     88  37  16 W12       30.04S
AURORA         PTSUNNY   91  39  16 N3        30.07S
FRONT RANGE AP PTSUNNY   99  36  11 W3        30.05F
ERIE MUNI ARPT FAIR      91  35  13 NW7G16    30.02R
BOULDER MUN AP FAIR      91  43  18 N7        30.04R
CENTENNIAL     PTSUNNY   92  34  13 S8        30.08F
BROOMFIELD     LGT RAIN  90  39  17 SW17G30   30.07S
LONGMONT       FAIR      92  44  18 N8        30.04R
$$

COZ041-046-047-076>085-087-088-240000-
...PIKES PEAK/PALMER DIVIDE AND SOUTHERN FOOTHILLS...

CITY           SKY/WX    TMP DP  RH WIND       PRES   REMARKS
COLO. SPRINGS  TSTM      74  50  42 NE26G39   30.16R
A. F. ACADEMY  PTSUNNY   81  45  28 SW14      30.18R
SCHRIEVER AFB  NOT AVBL
ELLICOTT       FAIR       1 N/A N/A SE8       30.11F WCI -12
FALCON         FAIR      82  44  26 SW10      30.22S
FORT CARSON    LGT RAIN  79  50  35 N14G28    30.12R
LIMON          FAIR      94  39  14 SE10G18   30.05F
MONUMENT HILL  FAIR      84  45  24 SE12      30.22F
TRINIDAD       NOT AVBL
$$

COZ042>045-048>051-090-091-240000-
...NORTHEAST COLORADO...

CITY           SKY/WX    TMP DP  RH WIND       PRES   REMARKS
GREELEY ARPT   FAIR      91  39  16 NW33G53   30.02R
AKRON          LGT RAIN  90  55  30 NE10      30.01S
BURLINGTON     FAIR      98  46  17 E12       29.97F
WRAY           FAIR     100  41  13 N10G17    29.92F
STERLING       FAIR      97  50  20 W9        29.93F
HOLYOKE        FAIR      99  55  23 W9        29.93S
FORT MORGAN    FAIR      96  41  15 NE10G17   29.99F
$$

COZ086-089-092>099-240000-
...SOUTHEAST COLORADO...

CITY           SKY/WX    TMP DP  RH WIND       PRES   REMARKS
PUEBLO         FAIR      99  42  14 S6        29.97S
LA JUNTA       FAIR     102  50  17 NE14G20   29.93F
LAMAR          FAIR     102  53  19 W3        29.87F
SPRINGFIELD      N/A     90  53  28 SW14G22   29.95F
$$




USA.gov is the U.S. government's official web portal to all federal, state and local government web resources and services.